Regional Weather Roundup
Issued by NWS

Home | Current Version | Previous Version | Text Only | Print | Product List | Glossary Off
Versions: 1 2 3 4 5 6 7 8 9 10 11 12 13 14 15 16 17 18 19 20 21 22 23 24 25 26 27 28 29 30 31 32 33 34 35 36 37 38 39 40 41 42 43 44 45 46 47 48 49 50

000
ASUS43 KLMK 190410
RWRKY
KENTUCKY REGIONAL WEATHER ROUNDUP
NATIONAL WEATHER SERVICE LOUISVILLE KY
1200 AM EDT FRI SEP 19 2014

NOTE "FAIR" INDICATES FEW OR NO CLOUDS BELOW 12,000 FEET
WITH NO SIGNIFICANT WEATHER AND/OR OBSTRUCTIONS TO VISIBILITY.

KYZ001>023-026-027-061>063-070>075-190500-
WESTERN AND SOUTH CENTRAL KENTUCKY

CITY           SKY/WX    TMP DP  RH WIND       PRES   REMARKS
PADUCAH        CLEAR     65  55  70 CALM      30.04S
HENDERSON      CLEAR     54  48  82 NE3       30.08R
OWENSBORO      CLEAR     64  56  75 NE5       30.08R
HOPKINSVILLE   CLEAR     59  58  97 NE6       30.04S
BOWLING GREEN  CLEAR     60  54  80 NE3       30.06S
GLASGOW        CLEAR     59  53  80 CALM      30.07S
$$

KYZ024-025-028>034-038-045-046-053-190500-
NORTH CENTRAL KENTUCKY

CITY           SKY/WX    TMP DP  RH WIND       PRES   REMARKS
LOUISVILLE/SDF CLEAR     64  50  60 E6        30.09S
LOUISVILLE/LOU CLEAR     63  49  60 NE3       30.10R
FORT KNOX      CLEAR     60  51  72 NE5       30.08S
$$

KYZ035>037-039>044-047>052-055>060-089>105-190500-
NORTHEAST KENTUCKY

CITY           SKY/WX    TMP DP  RH WIND       PRES   REMARKS
LEXINGTON      CLEAR     61  49  64 NE8       30.11R
COVINGTON      CLEAR     59  46  62 E8        30.13S
FRANKFORT      CLEAR     54  51  90 CALM      30.10R
$$

KYZ054-064>069-076>088-106>120-190500-
SOUTHEAST KENTUCKY

CITY           SKY/WX    TMP DP  RH WIND       PRES   REMARKS
JACKSON        CLEAR     59  51  75 CALM      30.11S
LONDON         CLEAR     62  53  72 CALM      30.10R
SOMERSET       NOT AVBL
MIDDLESBORO    CLEAR     57  56  96 CALM      30.10R
MONTICELLO     CLEAR     56  54  93 CALM      30.10R
$$




USA.gov is the U.S. government's official web portal to all federal, state and local government web resources and services.